sat.trackr.live / text

‹ back to catalog

SDA_1673

NORAD 65983 · 2025-230K

PAYLOAD ACTIVE UNKNOWN

§ Identity

Operator
Country
US
Launch date
2025-10-15
Launch site
AFWTR
Launch vehicle
Mass (kg)
RCS (m²)

External: N2YO · Heavens-Above · Gunter

§ Orbital elements

Epoch: 2026-09-19T23:57:36.600192Z

Period
104.18 min
Inclination
81.2997°
Eccentricity
0.0001275
Mean motion
13.82268599 rev/d
Perigee alt
954.9 km
Apogee alt
956.8 km
Semi-major
7,334.0 km
B*
1.0874e-4
RAAN
124.1578°
Arg perigee
46.5734°
Mean anomaly
313.5527°
Rev number
4,691

§ Raw data

SDA_16731 65983U 25230K   26262.99834028  .00000129  00000+0  10874-3 0  99982 65983  81.2997 124.1578 0001275  46.5734 313.5527 13.82268599 46910

JSON: /api/v1/satellites/65983 · /tle

For live sub-satellite position, see the globe view (requires WebGL).

§ Visibility from observer

Set your observer location to see the next 7 days of passes ≥ 10°. The values pass through the URL so the page stays shareable.

No JS? Fill the form by hand. The geolocation button needs JavaScript.